Weather History for Cheboygan, MI

Change the Weather History Date:

Friday, November 2, 2012

  Actual Average (KPLN) Record (KPLN)
Temperature  
Mean Temperature 34 °F -  
Max Temperature 37 °F 49 °F 71 °F (1990)
Min Temperature 32 °F 34 °F 16 °F (1989)
Degree Days  
Heating Degree Days 30    
Moisture  
Dew Point 31 °F    
Average Humidity 89    
Maximum Humidity 96    
Minimum Humidity 72    
Precipitation  
Precipitation 0.00 in - - ()
Sea Level Pressure  
Sea Level Pressure 29.95 in    
Wind  
Wind Speed 11 mph (NNW)    
Max Wind Speed 18 mph    
Max Gust Speed 25 mph    
Visibility 6 miles    
Events Snow    
Averages and records for this station are not official NWS values.
T = Trace of Precipitation, MM = Missing Value Source: NWS Daily Summary

Daily Weather History Graph

Daily Weather History Graph

Search for Another Location

Airport:

Trip Planner

Search our weather history database for the weather conditions in past years. The results will help you decide how hot, cold, wet, or windy it might be!

Date:

Astronomy

Nov. 02, 2012 Rise Set
Actual Time 8:19 AM EDT 6:22 PM EDT
Civil Twilight 7:48 AM EDT 6:53 PM EDT
Nautical Twilight 7:13 AM EDT 7:28 PM EDT
Astronomical Twilight 6:39 AM EDT 8:03 PM EDT
Moon 9:02 PM EDT (11/2) 11:46 AM EDT (11/2)
Length of Visible Light 11h 04m
Length of Day
10h 02m
Waning Gibbous, 87% of the Moon is Illuminated
Nov 2
Waning Gibbous
Nov 6
Last Quarter
Nov 13
New
Nov 20
First Quarter
Nov 28
Full

Hourly Weather History & Observations

Time (EDT) Temp. Windchill Dew Point Humidity Pressure Visibility Wind Dir Wind Speed Gust Speed Precip Events Conditions
12:15 AM 34.2 °F 27.5 °F 31.8 °F 91% 29.78 in 7.0 mi NNW 8.1 mph 17.3 mph N/A   Overcast
12:35 AM 34.0 °F 25.5 °F 31.6 °F 91% 29.79 in 4.0 mi NNW 11.5 mph 17.3 mph N/A Snow Light Snow
12:55 AM 34.3 °F 25.9 °F 31.5 °F 89% 29.79 in 10.0 mi North 11.5 mph 17.3 mph N/A   Overcast
1:15 AM 33.4 °F 27.3 °F 31.6 °F 93% 29.80 in 5.0 mi North 6.9 mph - N/A   Overcast
1:35 AM 33.8 °F 24.8 °F 30.0 °F 86% 29.80 in 7.0 mi North 12.7 mph 17.3 mph N/A   Overcast
1:55 AM 33.3 °F 25.7 °F 30.2 °F 89% 29.81 in 5.0 mi NNW 9.2 mph 16.1 mph N/A Snow Light Snow
2:15 AM 33.3 °F 24.6 °F 30.6 °F 90% 29.81 in 10.0 mi North 11.5 mph - N/A   Overcast
2:35 AM 33.1 °F 25.5 °F 30.7 °F 91% 29.82 in 5.0 mi North 9.2 mph - N/A Snow Light Snow
2:55 AM 33.3 °F 24.1 °F 30.2 °F 89% 29.82 in 5.0 mi North 12.7 mph 18.4 mph N/A Snow Light Snow
3:15 AM 33.1 °F 24.4 °F 31.1 °F 92% 29.83 in 3.0 mi NNW 11.5 mph - N/A Snow Light Snow
3:35 AM 33.3 °F 23.7 °F 30.0 °F 88% 29.83 in 5.0 mi NNW 13.8 mph 17.3 mph N/A Snow Light Snow
3:55 AM 33.6 °F 25.0 °F 29.3 °F 84% 29.83 in 10.0 mi North 11.5 mph 19.6 mph N/A   Overcast
4:15 AM 33.1 °F 25.5 °F 29.8 °F 88% 29.84 in 10.0 mi North 9.2 mph - N/A   Overcast
4:35 AM 33.3 °F 25.1 °F 30.0 °F 88% 29.84 in 7.0 mi NNW 10.4 mph 16.1 mph N/A   Overcast
4:55 AM 33.6 °F 25.0 °F 29.7 °F 85% 29.85 in 10.0 mi NW 11.5 mph 19.6 mph N/A   Overcast
5:15 AM 33.3 °F 25.7 °F 30.7 °F 90% 29.85 in 2.5 mi NW 9.2 mph 19.6 mph N/A Snow Light Snow
5:35 AM 32.9 °F 24.7 °F 31.6 °F 95% 29.85 in 2.5 mi WNW 10.4 mph - N/A Snow Light Snow
5:55 AM 32.9 °F 24.7 °F 31.8 °F 96% 29.86 in 3.0 mi NW 10.4 mph - N/A Snow Light Snow
6:15 AM 32.7 °F 23.9 °F 31.8 °F 96% 29.87 in 1.0 mi NNW 11.5 mph 17.3 mph N/A Snow Light Snow
6:36 AM 33.1 °F 23.4 °F 31.3 °F 93% 29.87 in 3.0 mi NW 13.8 mph 25.3 mph N/A   Overcast
6:55 AM 33.1 °F 23.9 °F 31.6 °F 94% 29.88 in 4.0 mi NW 12.7 mph 18.4 mph N/A   Overcast
7:15 AM 33.1 °F 23.4 °F 31.8 °F 95% 29.88 in 2.0 mi NW 13.8 mph - N/A Snow Light Snow
7:36 AM 33.1 °F 23.4 °F 32.0 °F 96% 29.88 in 1.0 mi NNW 13.8 mph - N/A Snow Snow
7:55 AM 33.1 °F 23.9 °F 32.0 °F 96% 29.89 in 1.0 mi NW 12.7 mph - N/A Snow Snow
8:15 AM 33.1 °F 25.5 °F 32.0 °F 96% 29.90 in 2.5 mi NW 9.2 mph 18.4 mph N/A Snow Light Snow
8:35 AM 33.3 °F 24.6 °F 32.0 °F 95% 29.90 in 2.0 mi NW 11.5 mph - N/A Snow Light Snow
8:55 AM 33.3 °F 24.1 °F 32.0 °F 95% 29.91 in 1.5 mi NW 12.7 mph 17.3 mph N/A Snow Light Snow
9:15 AM 33.1 °F 24.4 °F 32.0 °F 96% 29.92 in 1.0 mi NNW 11.5 mph 16.1 mph N/A Snow Light Snow
9:35 AM 33.3 °F 24.6 °F 32.0 °F 95% 29.92 in 0.8 mi NW 11.5 mph - N/A Snow Light Snow
9:55 AM 33.1 °F 24.4 °F 32.0 °F 96% 29.93 in 1.0 mi NW 11.5 mph - N/A Snow Light Snow
10:15 AM 33.1 °F 25.5 °F 32.0 °F 96% 29.94 in 2.5 mi North 9.2 mph - N/A Snow Light Snow
10:35 AM 33.8 °F 23.5 °F 31.5 °F 91% 29.94 in 7.0 mi NW 16.1 mph 21.9 mph N/A   Overcast
10:55 AM 34.2 °F 25.7 °F 31.6 °F 90% 29.95 in 7.0 mi NW 11.5 mph 19.6 mph N/A   Overcast
11:15 AM 33.8 °F 24.8 °F 31.5 °F 91% 29.95 in 2.5 mi NNW 12.7 mph - N/A Snow Light Snow
11:35 AM 33.8 °F 26.4 °F 32.0 °F 93% 29.96 in 1.5 mi NNW 9.2 mph - N/A Snow Light Snow
11:56 AM 34.2 °F 26.8 °F 32.0 °F 92% 29.96 in 3.0 mi NNW 9.2 mph - N/A   Overcast
12:15 PM 33.8 °F 25.8 °F 32.0 °F 93% 29.96 in 1.8 mi NW 10.4 mph - N/A Snow Light Snow
12:35 PM 34.2 °F 25.7 °F 32.2 °F 92% 29.97 in 5.0 mi NW 11.5 mph - N/A Snow Light Snow
12:55 PM 33.8 °F 24.8 °F 32.0 °F 93% 29.97 in 2.0 mi NW 12.7 mph 19.6 mph N/A Snow Light Snow
1:15 PM 34.7 °F 25.5 °F 31.8 °F 89% 29.97 in 3.0 mi NW 13.8 mph - N/A Snow Light Snow
1:35 PM 34.5 °F 26.7 °F 32.5 °F 92% 29.97 in 4.0 mi NW 10.4 mph 16.1 mph N/A Snow Light Snow
1:55 PM 35.2 °F 27.1 °F 32.2 °F 89% 29.98 in 5.0 mi NW 11.5 mph 18.4 mph N/A Snow Light Snow
2:15 PM 35.1 °F 26.4 °F 32.0 °F 89% 29.98 in 3.0 mi NNW 12.7 mph 20.7 mph N/A Snow Light Snow
2:35 PM 34.5 °F 26.2 °F 32.5 °F 92% 29.99 in 2.5 mi NNW 11.5 mph - N/A Snow Light Snow
2:56 PM 36.0 °F 26.7 °F 32.4 °F 87% 29.99 in 10.0 mi NW 15.0 mph 20.7 mph N/A   Overcast
3:15 PM 36.5 °F 26.7 °F 31.8 °F 83% 29.99 in 10.0 mi NNW 17.3 mph 24.2 mph N/A   Overcast
3:35 PM 36.5 °F 27.0 °F 32.0 °F 84% 29.99 in 10.0 mi NW 16.1 mph 23.0 mph N/A   Overcast
3:55 PM 37.0 °F 27.7 °F 31.8 °F 81% 30.00 in 10.0 mi NW 16.1 mph 20.7 mph N/A   Overcast
4:15 PM 37.0 °F 27.4 °F 31.1 °F 79% 30.01 in 10.0 mi NW 17.3 mph 23.0 mph N/A   Overcast
4:35 PM 37.0 °F 27.0 °F 31.8 °F 81% 30.01 in 10.0 mi NW 18.4 mph 25.3 mph N/A   Overcast
4:55 PM 36.7 °F 27.6 °F 32.0 °F 83% 30.02 in 10.0 mi NW 15.0 mph 20.7 mph N/A   Overcast
5:15 PM 36.7 °F 27.6 °F 31.6 °F 82% 30.02 in 10.0 mi NW 15.0 mph 20.7 mph N/A   Overcast
5:36 PM 36.5 °F 27.8 °F 32.0 °F 84% 30.03 in 10.0 mi NW 13.8 mph 19.6 mph N/A   Overcast
5:55 PM 36.5 °F 28.7 °F 31.8 °F 83% 30.03 in 10.0 mi NW 11.5 mph 25.3 mph N/A   Overcast
6:15 PM 36.1 °F 28.7 °F 31.8 °F 84% 30.03 in 10.0 mi NW 10.4 mph - N/A   Overcast
6:36 PM 36.1 °F 26.9 °F 31.6 °F 84% 30.04 in 10.0 mi NW 15.0 mph 23.0 mph N/A   Overcast
6:55 PM 36.0 °F 27.5 °F 31.8 °F 85% 30.05 in 10.0 mi NW 12.7 mph 20.7 mph N/A   Overcast
7:15 PM 35.8 °F 28.3 °F 32.0 °F 86% 30.05 in 10.0 mi NNW 10.4 mph 17.3 mph N/A   Overcast
7:35 PM 35.6 °F 27.5 °F 32.0 °F 87% 30.06 in 10.0 mi NW 11.5 mph 17.3 mph N/A   Overcast
7:55 PM 35.6 °F 26.6 °F 32.0 °F 87% 30.06 in 10.0 mi NW 13.8 mph 17.3 mph N/A   Overcast
8:16 PM 35.6 °F 26.6 °F 32.0 °F 87% 30.07 in 10.0 mi NW 13.8 mph 18.4 mph N/A   Overcast
8:35 PM 35.6 °F 28.0 °F 32.0 °F 87% 30.07 in 10.0 mi NW 10.4 mph - N/A   Overcast
8:55 PM 35.1 °F 27.4 °F 32.0 °F 89% 30.08 in 10.0 mi NW 10.4 mph - N/A   Overcast
9:15 PM 35.1 °F 27.4 °F 32.0 °F 89% 30.08 in 10.0 mi NW 10.4 mph - N/A   Overcast
9:35 PM 35.2 °F 28.1 °F 31.8 °F 87% 30.08 in 10.0 mi NW 9.2 mph - N/A   Overcast
9:55 PM 35.1 °F 27.9 °F 32.0 °F 89% 30.09 in 10.0 mi NW 9.2 mph - N/A   Overcast
10:15 PM 34.7 °F 27.5 °F 31.8 °F 89% 30.09 in 7.0 mi NW 9.2 mph - N/A   Overcast
10:35 PM 35.2 °F 27.6 °F 31.6 °F 87% 30.10 in 10.0 mi North 10.4 mph - N/A   Overcast
10:55 PM 35.6 °F 28.0 °F 28.0 °F 74% 30.10 in 10.0 mi North 10.4 mph - N/A   Overcast
11:35 PM 34.9 °F 26.6 °F 26.8 °F 72% 30.10 in 10.0 mi North 11.5 mph 18.4 mph N/A   Overcast
11:55 PM 34.7 °F 26.4 °F 26.6 °F 72% 30.11 in 10.0 mi NNE 11.5 mph - N/A   Overcast